Weather History for Twentynine Palms, CA

Change the Weather History Date:

Monday, October 8, 2012

  Actual Average Record
Temperature  
Mean Temperature 75 °F -  
Max Temperature 89 °F 85 °F 102 °F (1996)
Min Temperature 62 °F 57 °F 48 °F (2007)
Cooling Degree Days 10    
Growing Degree Days 25 (Base 50)    
Moisture  
Dew Point 37 °F    
Average Humidity 28    
Maximum Humidity 48    
Minimum Humidity 13    
Precipitation  
Precipitation 0.00 in - - ()
Sea Level Pressure  
Sea Level Pressure 29.88 in    
Wind  
Wind Speed 6 mph (WNW)    
Max Wind Speed 18 mph    
Max Gust Speed -    
Visibility 10 miles    
Events      
Averages and records for this station are not official NWS values.
T = Trace of Precipitation, MM = Missing Value Source: NWS Daily Summary

Daily Weather History Graph

Daily Weather History Graph

Search for Another Location

Airport:

Trip Planner

Search our weather history database for the weather conditions in past years. The results will help you decide how hot, cold, wet, or windy it might be!

Date:

Astronomy

Oct. 08, 2012 Rise Set
Actual Time 6:44 AM PDT 6:18 PM PDT
Civil Twilight 6:19 AM PDT 6:43 PM PDT
Nautical Twilight 5:50 AM PDT 7:12 PM PDT
Astronomical Twilight 5:21 AM PDT 7:41 PM PDT
Moon No Moon Rise 1:55 PM PDT (10/8)
Length of Visible Light 12h 23m
Length of Day
11h 33m
Last Quarter, 45% of the Moon is Illuminated
Oct 8
Last Quarter
Oct 15
New
Oct 21
First Quarter
Oct 29
Full
Nov 6
Last Quarter

Hourly Weather History & Observations

Time (PDT) Temp. Dew Point Humidity Pressure Visibility Wind Dir Wind Speed Gust Speed Precip Events Conditions
12:56 AM 69.1 °F 41.0 °F 36% 29.88 in 10.0 mi NW 4.6 mph - N/A   Clear
1:56 AM 68.0 °F 39.0 °F 35% 29.88 in 10.0 mi NNW 8.1 mph - N/A   Clear
2:56 AM 64.9 °F 41.0 °F 42% 29.88 in 10.0 mi Calm Calm - N/A   Clear
3:56 AM 64.9 °F 43.0 °F 45% 29.87 in 10.0 mi WNW 10.4 mph - N/A   Clear
4:56 AM 64.0 °F 43.0 °F 46% 29.89 in 10.0 mi WNW 10.4 mph - N/A   Clear
5:56 AM 64.0 °F 43.0 °F 46% 29.91 in 10.0 mi WNW 8.1 mph - N/A   Clear
6:56 AM 62.1 °F 42.1 °F 48% 29.93 in 10.0 mi NW 4.6 mph - N/A   Clear
7:56 AM 66.0 °F 42.1 °F 42% 29.93 in 10.0 mi WNW 8.1 mph - N/A   Clear
8:56 AM 68.0 °F 43.0 °F 40% 29.94 in 10.0 mi NW 4.6 mph - N/A   Clear
9:56 AM 75.0 °F 42.1 °F 31% 29.94 in 10.0 mi Calm Calm - N/A   Clear
10:56 AM 80.1 °F 39.9 °F 24% 29.92 in 10.0 mi Calm Calm - N/A   Clear
11:56 AM 82.9 °F 37.0 °F 19% 29.90 in 10.0 mi Variable 4.6 mph - N/A   Clear
12:56 PM 84.0 °F 36.0 °F 18% 29.88 in 10.0 mi Calm Calm - N/A   Clear
1:56 PM 86.0 °F 34.0 °F 16% 29.85 in 10.0 mi Calm Calm - N/A   Clear
2:56 PM 88.0 °F 36.0 °F 16% 29.83 in 10.0 mi SE 9.2 mph - N/A   Clear
3:56 PM 88.0 °F 33.1 °F 14% 29.83 in 10.0 mi Variable 4.6 mph - N/A   Clear
4:56 PM 88.0 °F 33.1 °F 14% 29.82 in 10.0 mi SSE 4.6 mph - N/A   Clear
5:56 PM 84.9 °F 28.9 °F 13% 29.83 in 10.0 mi SW 13.8 mph - N/A   Clear
6:56 PM 81.0 °F 32.0 °F 17% 29.84 in 10.0 mi SW 18.4 mph - N/A   Clear
7:56 PM 78.1 °F 35.1 °F 21% 29.86 in 10.0 mi WSW 13.8 mph - N/A   Clear
8:56 PM 75.0 °F 37.9 °F 26% 29.88 in 10.0 mi West 11.5 mph - N/A   Clear
9:56 PM 73.0 °F 33.1 °F 23% 29.89 in 10.0 mi West 6.9 mph - N/A   Clear
10:56 PM 73.0 °F 28.9 °F 20% 29.89 in 10.0 mi NW 8.1 mph - N/A   Clear
11:56 PM 68.0 °F 28.9 °F 23% 29.88 in 10.0 mi NW 6.9 mph - N/A   Clear